User: anonymous   Login
Location: Indian Springs
(36.5700°N, 115.6700°W)
Time: 16:19:54
(UTC-07:00)
Language:

Cosmos 2278 Rocket - Orbit

View from above orbital plane
View from above orbital plane
View from above satellite
View from above satellite

Ground track
Ground track

The orbit data is extracted from the following two-line orbital elements,

1 23088U 94023B   15115.58881052 -.00000178  00000-0 -67740-4 0  9995
2 23088 070.9972 126.6827 0005018 233.5606 126.5054 14.14612052 84728
Epoch (UTC): 25 April 2015 14:07:53
Eccentricity: 0.0005018
inclination: 70.9972°
perigee height: 840 km
apogee height: 847 km
right ascension of ascending node: 126.6827°
argument of perigee: 233.5606°
revolutions per day: 14.14612052
mean anomaly at epoch: 126.5054°
orbit number at epoch: 8472

The dashed part of the orbit path shows where the satellite is in the earth's shadow,  

DLR